ORBCOMM FM20

Last updated on Sat Aug 15 2026 00:03:10 GMT+0000 (Coordinated Universal Time)

1 25416U 98046D 26226.57501881 .00000225 00000+0 11998-3 0 9997 2 25416 44.9953 334.5723 0002419 222.2913 137.7749 14.38137219465190
UTC large
Height (km)
Speed (km/s)
/
Latitude / Longitude
Inclination (degrees)
Orbital Period (minutes)
Azimuth
Elevation
Range (km)
Doppler Factor

Next 0 passes for location: London (51.5072 / 0.1276)

No passes found over London.
ORBCOMM FM20